CW6747 Weather Reports


Display with metric or nautical units.
time (UTC)temp
F
wind
direction
speed
MPH
gust
MPH
rain 1hr
in
rain 24hr
in
rain mn
in
humidity
%
barometer
mb
20260831030034 68 0 0.0 0.0 0.00 0.00 0.00 92 1020.7
20260831024533 68 0 0.0 2.0 0.00 0.00 0.00 92 1020.8
20260831023033 68 0 0.0 0.0 0.00 0.00 0.00 91 1021.0
20260831021544 68 0 0.0 0.0 0.00 0.00 0.00 91 1021.0
20260831020033 67 200 0.0 2.0 0.00 0.00 0.00 91 1021.0
20260831014535 69 200 0.0 2.0 0.00 0.00 0.00 88 1020.9
20260831013033 68 0 0.0 2.0 0.00 0.00 0.00 90 1020.8
20260831011542 69 200 0.0 1.0 0.00 0.00 0.00 88 1020.5
20260831010047 69 0 0.0 1.0 0.00 0.00 0.00 88 1020.2
20260831004534 69 0 0.0 0.0 0.00 0.00 0.00 88 1019.9
20260831003033 69 0 0.0 1.0 0.00 0.00 0.00 88 1019.5
20260831001540 69 200 0.0 2.0 0.00 0.00 0.00 88 1019.3
20260831000032 70 200 0.0 2.0 0.00 0.00 0.00 86 1019.2
20260830234534 70 0 0.0 3.0 0.00 0.00 0.00 86 1019.1
20260830233035 71 200 0.0 2.0 0.00 0.00 0.00 84 1019.1
20260830231538 71 200 0.0 1.0 0.00 0.00 0.00 86 1019.2
20260830230034 72 0 0.0 2.0 0.00 0.00 0.00 81 1019.4
20260830224533 73 0 0.0 5.0 0.00 0.00 0.00 78 1019.4
20260830223032 74 0 0.0 2.0 0.00 0.00 0.00 74 1019.4
20260830221534 74 0 1.0 3.0 0.00 0.00 0.00 73 1019.5
20260830220037 74 279 1.0 3.0 0.00 0.00 0.00 74 1019.6
20260830214533 75 201 0.0 3.0 0.00 0.00 0.00 71 1019.5
20260830213034 75 327 1.0 4.0 0.00 0.00 0.00 72 1019.4
20260830211535 76 300 1.0 5.0 0.00 0.00 0.00 71 1019.2
20260830210037 77 307 1.0 4.0 0.00 0.00 0.00 69 1019.2
20260830204537 77 343 2.0 6.0 0.00 0.00 0.00 68 1019.1
20260830203035 77 355 2.0 5.0 0.00 0.00 0.00 70 1018.9
20260830201534 78 5 1.0 4.0 0.00 0.00 0.00 74 1019.2
20260830200034 79 355 0.0 3.0 0.00 0.00 0.00 71 1019.1
20260830194537 78 5 1.0 4.0 0.00 0.00 0.00 69 1019.3
20260830193032 78 273 2.0 5.0 0.00 0.00 0.00 73 1019.5
20260830191534 77 265 2.0 4.0 0.00 0.00 0.00 71 1019.5
20260830190036 78 274 3.0 7.0 0.00 0.00 0.00 70 1019.9
20260830184535 78 336 4.0 8.0 0.00 0.00 0.00 69 1019.9
20260830183036 78 296 3.0 9.0 0.00 0.00 0.00 69 1020.1
20260830181536 79 294 3.0 8.0 0.00 0.00 0.00 69 1020.2
20260830180033 78 295 4.0 11.0 0.00 0.00 0.00 68 1020.4
20260830174549 78 286 6.0 11.0 0.00 0.00 0.00 69 1020.3
20260830173036 78 305 6.0 10.0 0.00 0.00 0.00 67 1020.5
20260830171540 77 289 6.0 11.0 0.00 0.00 0.00 67 1020.6
20260830170035 78 306 5.0 11.0 0.00 0.00 0.00 69 1020.7
20260830164535 76 324 2.0 9.0 0.00 0.00 0.00 73 1020.8
20260830163050 77 300 6.0 11.0 0.00 0.00 0.00 74 1020.9
20260830161547 76 286 5.0 11.0 0.00 0.00 0.00 74 1021.0
20260830160035 76 337 6.0 11.0 0.00 0.00 0.00 75 1021.1
20260830154537 75 296 5.0 11.0 0.00 0.00 0.00 75 1021.2
20260830153038 75 333 4.0 10.0 0.00 0.00 0.00 78 1021.2
20260830151542 74 281 5.0 12.0 0.00 0.00 0.00 75 1021.1
20260830150035 74 262 4.0 8.0 0.00 0.00 0.00 77 1021.1
20260830144536 73 294 1.0 3.0 0.00 0.00 0.00 77 1021.0
20260830143035 71 0 0.0 3.0 0.00 0.00 0.00 78 1021.1
20260830141531 69 0 1.0 5.0 0.00 0.00 0.00 77 1021.3
20260830140033 68 10 1.0 4.0 0.00 0.00 0.00 79 1021.4
20260830134533 67 283 0.0 2.0 0.00 0.00 0.00 80 1021.3
20260830133044 65 0 0.0 1.0 0.00 0.00 0.00 84 1021.5
20260830131534 65 0 0.0 0.0 0.00 0.00 0.00 82 1021.5
20260830130038 64 0 0.0 0.0 0.00 0.00 0.00 83 1021.4
20260830124541 62 0 0.0 2.0 0.00 0.00 0.00 86 1021.4
20260830123035 62 0 0.0 2.0 0.00 0.00 0.00 86 1021.5
20260830121536 61 0 0.0 3.0 0.00 0.00 0.00 86 1021.5
20260830120034 60 111 1.0 3.0 0.00 0.00 0.00 88 1021.6
20260830114533 58 0 0.0 1.0 0.00 0.00 0.00 91 1021.4
20260830113032 57 171 0.0 2.0 0.00 0.00 0.00 92 1021.5
20260830111532 57 75 0.0 3.0 0.00 0.00 0.00 92 1021.6
20260830110044 57 94 0.0 3.0 0.00 0.00 0.00 92 1021.4
20260830104536 57 94 0.0 3.0 0.00 0.00 0.00 92 1021.3
20260830103034 57 123 0.0 2.0 0.00 0.00 0.00 90 1021.3
20260830101533 58 0 0.0 2.0 0.00 0.00 0.00 91 1021.6
20260830100032 58 0 0.0 0.0 0.00 0.00 0.00 90 1021.8
20260830094533 58 0 0.0 0.0 0.00 0.00 0.00 90 1021.9
20260830093036 57 0 0.0 0.0 0.00 0.00 0.00 90 1021.9
20260830091534 57 123 0.0 3.0 0.00 0.00 0.00 90 1021.7
20260830090033 57 0 1.0 3.0 0.00 0.00 0.00 90 1021.9
20260830084535 57 0 0.0 6.0 0.00 0.00 0.00 90 1021.9
20260830083038 57 0 0.0 4.0 0.00 0.00 0.00 90 1022.0
20260830081537 57 136 0.0 2.0 0.00 0.00 0.00 91 1022.1
20260830080039 56 92 1.0 4.0 0.00 0.00 0.00 92 1022.0
20260830074537 57 0 1.0 4.0 0.00 0.00 0.00 91 1022.1
20260830073036 56 0 0.0 1.0 0.00 0.00 0.00 92 1022.2
20260830071553 56 134 0.0 3.0 0.00 0.00 0.00 91 1022.2
20260830070032 56 53 1.0 2.0 0.00 0.00 0.00 92 1022.3
20260830064533 55 179 1.0 3.0 0.00 0.00 0.00 92 1022.2
20260830063038 56 0 0.0 5.0 0.00 0.00 0.00 91 1022.2
20260830061534 56 148 0.0 3.0 0.00 0.00 0.00 91 1022.3
20260830060036 56 0 1.0 3.0 0.00 0.00 0.00 92 1022.3
20260830054538 56 216 0.0 3.0 0.00 0.00 0.00 90 1022.6
20260830053032 57 142 1.0 3.0 0.00 0.00 0.00 89 1022.7
20260830051534 56 0 0.0 1.0 0.00 0.00 0.00 90 1022.6
20260830044536 56 0 0.0 4.0 0.00 0.00 0.00 90 1022.6
20260830043032 56 0 0.0 2.0 0.00 0.00 0.00 89 1022.6
20260830041602 57 168 0.0 2.0 0.00 0.00 0.00 89 1022.7
20260830040042 57 168 1.0 5.0 0.00 0.00 0.00 88 1022.8
20260830034532 57 206 0.0 2.0 0.00 0.00 0.00 88 1022.7
20260830033036 58 0 0.0 3.0 0.00 0.00 0.00 85 1022.7
20260830031531 59 0 0.0 2.0 0.00 0.00 0.00 84 1022.7